Location: Courcelles
(49.2596°N, 1.7419°E)
Time: 21:03:03
(UTC+00:00)

Cosmos 2058 - Pass Details

Date: 17 November 2025
Orbit: 529 x 541 km, 82.5° (Epoch: 05 December)

Event Time Altitude Azimuth Distance (km) Brightness Sun altitude
Rises 17:35:48 0° 353° (N) 2,705 6.3 -14.0°
Reaches altitude 10° 17:38:00 10° 358° (N) 1,810 5.3 -14.4°
Maximum altitude 17:41:56 57° 77° (ENE) 644 2.8 -15.0°
Drops below altitude 10° 17:45:50 10° 157° (SSE) 1,802 5.3 -15.6°
Sets 17:48:01 0° 161° (SSE) 2,690 6.3 -16.0°
